Flag for Russia Weather past 2 weeks in Kazan, Russia

Now
21 °F

Light snow. Overcast.


Feels Like: 7 °F
Forecast: 15 / 26 °F
Wind: 17 mph from North

Location: Kazan'

Current Time: Oct 25, 2014 at 7:37:17 PM

Latest Report: Oct 25, 2014 at 7:00 PM


Visibility: N/A

Pressure: 30.39 "Hg

Humidity: 74%

Dew point: 14 °F

Location of KazanLocation

Historic Weather in Kazan — Graph

°F

Kazan temperature yesterday

Maximum temperature yesterday: 19 °F (at 10:30 AM)
Minimum temperature yesterday: 16 °F (at 6:00 AM)
Average temperature yesterday: 18 °F

Past Weeks' High & Low Weather Summary

 TemperatureHumidityPressure
High54 °F (Oct 11, 10:30 AM)100% (Oct 10, 10:00 PM)30.39 "Hg (Oct 10, 10:00 PM)
Low12 °F (Oct 23, 2:00 AM)63% (Oct 11, 10:30 AM)29.18 "Hg (Oct 22, 4:30 AM)
Average33 °F88%29.82 "Hg
* Reported Oct 10 6:00 PM — Oct 25 6:30 PM, Kazan, Weather by CustomWeather, © 2014

Note: Actual official high and low records may vary slightly from our data, if they occured in-between our weather recording intervals... More about our weather records

Advertising

Kazan weather history for previous 24 hours

 ConditionsComfort  
Time TempWeatherWind HumidityBarometerVisibility
6:30 PM
Oct 25
21 °FLight snow. Overcast.17 mph74%30.39 "HgN/A
6:00 PM21 °FLight snow. Overcast.15 mph74%30.39 "HgN/A
5:30 PM21 °FLight snow. Overcast.15 mph80%30.39 "HgN/A
5:00 PM21 °FSnow flurries. Partly sunny.15 mph80%30.36 "HgN/A
4:30 PM21 °FSnow flurries. Partly sunny.15 mph80%30.36 "HgN/A
4:00 PM21 °FSnow flurries. Partly sunny.17 mph80%30.36 "HgN/A
3:30 PM23 °FLight snow. Overcast.20 mph68%30.36 "HgN/A
3:00 PM23 °FLight snow. Overcast.20 mph68%30.36 "HgN/A
2:30 PM23 °FLight snow. Overcast.20 mph68%30.33 "HgN/A
2:00 PM23 °FLight snow. Overcast.20 mph74%30.33 "HgN/A
1:30 PM23 °FLight snow. Overcast.15 mph74%30.33 "HgN/A
1:00 PM23 °FLight snow. Overcast.20 mph74%30.33 "HgN/A
12:30 PM23 °FLight snow. Overcast.20 mph74%30.33 "HgN/A
12:00 PM23 °FLight snow. Overcast.20 mph74%30.33 "HgN/A
11:30 AM23 °FLight snow. Overcast.20 mph74%30.33 "HgN/A
11:00 AM21 °FLight snow. Overcast.17 mph80%30.33 "HgN/A
10:30 AM21 °FLight snow. Overcast.15 mph80%30.33 "HgN/A
10:00 AM21 °FLight snow. Overcast.15 mph80%30.33 "HgN/A
9:30 AM21 °FLight snow. Overcast.15 mph80%30.33 "HgN/A
9:00 AM19 °FLight snow. Overcast.15 mph86%30.30 "HgN/A
8:30 AM19 °FLight snow. Overcast.15 mph86%30.30 "HgN/A
8:00 AM19 °FLight snow. Overcast.15 mph86%30.30 "HgN/A
7:30 AM19 °FOvercast.15 mph86%30.30 "HgN/A
7:00 AM18 °FLight snow. Passing clouds.15 mph93%30.30 "HgN/A
6:30 AM18 °FLight snow. Passing clouds.15 mph93%30.30 "HgN/A
6:00 AM18 °FLight snow. Overcast.15 mph86%30.30 "HgN/A
5:30 AM18 °FLight snow. Overcast.13 mph86%30.30 "HgN/A
5:00 AM18 °FLight snow. Overcast.17 mph86%30.30 "HgN/A
4:30 AM18 °FLight snow. Overcast.15 mph86%30.30 "HgN/A
4:00 AM18 °FLight snow. Overcast.15 mph86%30.30 "HgN/A
3:30 AM18 °FLight snow. Overcast.15 mph86%30.30 "HgN/A
3:00 AM18 °FLight snow. Overcast.15 mph86%30.30 "HgN/A
2:30 AM18 °FLight snow. Overcast.15 mph79%30.30 "HgN/A
2:00 AM16 °FLight snow. Overcast.15 mph86%30.27 "HgN/A
1:30 AM16 °FPassing clouds.15 mph86%30.30 "HgN/A
1:00 AM18 °FPassing clouds.15 mph73%30.27 "HgN/A
12:30 AM18 °FPassing clouds.17 mph73%30.27 "HgN/A
12:00 AM18 °FPassing clouds.15 mph73%30.27 "HgN/A
11:30 PM
Oct 24
18 °FPassing clouds.15 mph73%30.27 "HgN/A
11:00 PM18 °FPassing clouds.15 mph73%30.27 "HgN/A
10:30 PM18 °FPassing clouds.13 mph73%30.27 "HgN/A
10:00 PM18 °FOvercast.15 mph73%30.27 "HgN/A
9:30 PM18 °FOvercast.15 mph73%30.27 "HgN/A
9:00 PM18 °FLight snow. Overcast.20 mph73%30.27 "HgN/A
8:30 PM18 °FLight snow. Overcast.22 mph79%30.27 "HgN/A
8:00 PM18 °FLight snow. Overcast.22 mph73%30.27 "HgN/A
7:30 PM18 °FLight snow. Overcast.20 mph73%30.27 "HgN/A
7:00 PM18 °FPassing clouds.20 mph73%30.27 "HgN/A
Weather by CustomWeather, © 2014

See weather overviewHow to use our weather pages